When you browse on this site, cookies collect data to enhance your experience and personalize the content and advertising you see.
Visit our Privacy Policy to learn more. By continuing to use the site, you agree to this use of cookies and data.
  • în România
  • Lista ţărilor
  • Pe 7 zile
  • Temperatura apei
  • Hartă satelitară
  • Meteo pe hartă
  • Widget-uri
  • user-avatar
    Intrare

    Meteo pe oră la Solden

    Astăzi, 16 Decembrie, Duminică

    Timp Temperatura Precipitaţii Vânt Presiune Umiditate
    00:00 -13°C° 0 mm 1 m/s 575 mmHg 47%
    01:00 -13°C° 0 mm 1 m/s 575 mmHg 45%
    02:00 -12°C° 0 mm 1 m/s 575 mmHg 49%
    03:00 -11°C° 0 mm 1 m/s 576 mmHg 52%
    04:00 -13°C° 0 mm 2 m/s 576 mmHg 55%
    05:00 -12°C° 0.3 mm 2 m/s 576 mmHg 60%
    06:00 -10°C° 0.3 mm 1 m/s 576 mmHg 66%
    07:00 -9°C° 0.3 mm 1 m/s 576 mmHg 71%
    08:00 -9°C° 0.1 mm 1 m/s 576 mmHg 69%
    09:00 -8°C° 0.1 mm 1 m/s 577 mmHg 67%
    10:00 -7°C° 0.1 mm 1 m/s 577 mmHg 66%
    11:00 -6°C° 0 mm 1 m/s 578 mmHg 65%
    12:00 -4°C° 0 mm 1 m/s 578 mmHg 65%
    13:00 -3°C° 0 mm 1 m/s 578 mmHg 65%
    14:00 -4°C° 0 mm 1 m/s 578 mmHg 68%
    15:00 -6°C° 0 mm 1 m/s 577 mmHg 72%
    16:00 -6°C° 0 mm 1 m/s 577 mmHg 75%
    17:00 -7°C° 0.1 mm 1 m/s 577 mmHg 76%
    18:00 -8°C° 0.1 mm 1 m/s 577 mmHg 77%
    19:00 -8°C° 0.1 mm 1 m/s 576 mmHg 79%
    20:00 -8°C° 0.2 mm 1 m/s 577 mmHg 79%
    21:00 -8°C° 0.2 mm 1 m/s 577 mmHg 80%
    22:00 -8°C° 0.2 mm 1 m/s 577 mmHg 81%
    23:00 -8°C° 0.3 mm 1 m/s 577 mmHg 81%

    Mâine, 17 Decembrie, Luni

    Timp Temperatura Precipitaţii Vânt Presiune Umiditate
    00:00 -8°C° 0.3 mm 1 m/s 577 mmHg 82%
    01:00 -7°C° 0.3 mm 1 m/s 577 mmHg 83%
    02:00 -8°C° 0.1 mm 1 m/s 577 mmHg 84%
    03:00 -8°C° 0.1 mm 1 m/s 577 mmHg 84%
    04:00 -9°C° 0.1 mm 2 m/s 577 mmHg 85%
    05:00 -8°C° 0 mm 1 m/s 577 mmHg 85%
    06:00 -9°C° 0 mm 1 m/s 577 mmHg 86%
    07:00 -9°C° 0 mm 1 m/s 577 mmHg 86%
    08:00 -9°C° 0 mm 2 m/s 578 mmHg 84%
    09:00 -9°C° 0 mm 2 m/s 579 mmHg 82%
    10:00 -8°C° 0 mm 2 m/s 579 mmHg 80%
    11:00 -7°C° 0 mm 2 m/s 580 mmHg 78%
    12:00 -6°C° 0 mm 2 m/s 580 mmHg 75%
    13:00 -5°C° 0 mm 2 m/s 581 mmHg 72%
    14:00 -6°C° 0 mm 2 m/s 581 mmHg 75%
    15:00 -7°C° 0 mm 2 m/s 581 mmHg 78%
    16:00 -8°C° 0 mm 2 m/s 581 mmHg 82%
    17:00 -9°C° 0 mm 2 m/s 581 mmHg 82%
    18:00 -9°C° 0 mm 2 m/s 581 mmHg 83%
    19:00 -10°C° 0 mm 2 m/s 581 mmHg 84%
    20:00 -12°C° 0 mm 2 m/s 582 mmHg 84%
    21:00 -12°C° 0 mm 2 m/s 582 mmHg 83%
    22:00 -12°C° 0 mm 2 m/s 582 mmHg 83%
    23:00 -13°C° 0 mm 2 m/s 582 mmHg 83%

    Poimâine, 18 Decembrie, Marţi

    Timp Temperatura Precipitaţii Vânt Presiune Umiditate
    00:00 -13°C° 0 mm 2 m/s 582 mmHg 82%
    01:00 -13°C° 0 mm 2 m/s 582 mmHg 81%
    02:00 -13°C° 0 mm 2 m/s 582 mmHg 80%
    03:00 -13°C° 0 mm 2 m/s 582 mmHg 78%
    04:00 -13°C° 0 mm 2 m/s 582 mmHg 76%
    05:00 -11°C° 0 mm 1 m/s 582 mmHg 73%
    06:00 -11°C° 0 mm 1 m/s 582 mmHg 69%
    07:00 -11°C° 0 mm 1 m/s 582 mmHg 65%
    08:00 -10°C° 0 mm 1 m/s 583 mmHg 62%
    09:00 -8°C° 0 mm 1 m/s 583 mmHg 59%
    10:00 -7°C° 0 mm 1 m/s 584 mmHg 57%
    11:00 -6°C° 0 mm 1 m/s 584 mmHg 56%
    12:00 -3°C° 0 mm 1 m/s 584 mmHg 56%
    13:00 -2°C° 0 mm 1 m/s 585 mmHg 55%
    14:00 -3°C° 0 mm 1 m/s 584 mmHg 58%
    15:00 -6°C° 0 mm 1 m/s 583 mmHg 62%
    16:00 -7°C° 0 mm 1 m/s 582 mmHg 66%
    17:00 -9°C° 0 mm 2 m/s 582 mmHg 64%
    18:00 -10°C° 0 mm 2 m/s 581 mmHg 62%
    19:00 -12°C° 0 mm 2 m/s 581 mmHg 60%
    20:00 -12°C° 0 mm 2 m/s 581 mmHg 58%
    21:00 -12°C° 0 mm 2 m/s 580 mmHg 55%
    22:00 -12°C° 0 mm 2 m/s 580 mmHg 53%
    23:00 -12°C° 0 mm 2 m/s 580 mmHg 52%

    19 Decembrie, Miercuri

    Timp Temperatura Precipitaţii Vânt Presiune Umiditate
    00:00 -12°C° 0 mm 2 m/s 580 mmHg 51%
    01:00 -10°C° 0 mm 2 m/s 580 mmHg 50%
    02:00 -10°C° 0 mm 2 m/s 580 mmHg 49%
    03:00 -10°C° 0 mm 2 m/s 580 mmHg 48%
    04:00 -9°C° 0 mm 1 m/s 579 mmHg 48%
    05:00 -9°C° 0 mm 1 m/s 579 mmHg 47%
    06:00 -8°C° 0 mm 1 m/s 579 mmHg 47%
    07:00 -8°C° 0 mm 1 m/s 579 mmHg 47%
    08:00 -7°C° 0 mm 1 m/s 580 mmHg 49%
    09:00 -6°C° 0 mm 1 m/s 580 mmHg 51%
    10:00 -4°C° 0 mm 1 m/s 581 mmHg 53%
    11:00 -3°C° 0 mm 1 m/s 581 mmHg 55%
    12:00 -3°C° 0 mm 1 m/s 581 mmHg 57%
    13:00 -4°C° 0 mm 2 m/s 581 mmHg 59%
    14:00 -5°C° 0 mm 2 m/s 580 mmHg 64%
    15:00 -6°C° 0 mm 2 m/s 580 mmHg 70%
    16:00 -7°C° 0 mm 2 m/s 579 mmHg 75%
    17:00 -7°C° 0.1 mm 2 m/s 579 mmHg 77%
    18:00 -8°C° 0.1 mm 2 m/s 579 mmHg 79%
    19:00 -8°C° 0.1 mm 2 m/s 578 mmHg 81%
    20:00 -8°C° 0.1 mm 2 m/s 578 mmHg 83%
    21:00 -8°C° 0.1 mm 2 m/s 578 mmHg 85%
    22:00 -9°C° 0.1 mm 2 m/s 578 mmHg 87%
    23:00 -8°C° 0.3 mm 2 m/s 578 mmHg 88%

    20 Decembrie, Joi

    Timp Temperatura Precipitaţii Vânt Presiune Umiditate
    00:00 -8°C° 0.3 mm 2 m/s 578 mmHg 89%
    01:00 -8°C° 0.3 mm 2 m/s 578 mmHg 91%
    02:00 -7°C° 0.8 mm 1 m/s 578 mmHg 92%
    03:00 -7°C° 0.8 mm 1 m/s 578 mmHg 93%
    04:00 -7°C° 0.8 mm 1 m/s 578 mmHg 94%
    05:00 -7°C° 0.8 mm 1 m/s 577 mmHg 93%
    06:00 -7°C° 0.8 mm 1 m/s 577 mmHg 93%
    07:00 -7°C° 0.8 mm 1 m/s 577 mmHg 93%
    08:00 -7°C° 0.8 mm 1 m/s 578 mmHg 92%
    09:00 -7°C° 0.8 mm 1 m/s 578 mmHg 91%
    10:00 -7°C° 0.8 mm 2 m/s 578 mmHg 90%
    11:00 -7°C° 0.8 mm 2 m/s 578 mmHg 90%
    12:00 -7°C° 0.8 mm 2 m/s 578 mmHg 89%
    13:00 -7°C° 0.8 mm 3 m/s 578 mmHg 88%
    14:00 -8°C° 0.7 mm 3 m/s 578 mmHg 89%
    15:00 -8°C° 0.7 mm 3 m/s 578 mmHg 89%
    16:00 -8°C° 0.7 mm 3 m/s 578 mmHg 89%
    17:00 -9°C° 0.3 mm 3 m/s 578 mmHg 89%
    18:00 -9°C° 0.3 mm 3 m/s 578 mmHg 89%
    19:00 -10°C° 0.3 mm 3 m/s 579 mmHg 89%
    20:00 -9°C° 0.1 mm 2 m/s 579 mmHg 89%
    21:00 -9°C° 0.1 mm 2 m/s 579 mmHg 88%
    22:00 -10°C° 0.1 mm 2 m/s 579 mmHg 88%
    23:00 -10°C° 0 mm 2 m/s 579 mmHg 88%

    21 Decembrie, Vineri

    Timp Temperatura Precipitaţii Vânt Presiune Umiditate
    00:00 -12°C° 0 mm 2 m/s 579 mmHg 88%
    01:00 -12°C° 0 mm 2 m/s 579 mmHg 88%
    02:00 -13°C° 0 mm 2 m/s 579 mmHg 87%
    03:00 -14°C° 0 mm 2 m/s 579 mmHg 87%
    04:00 -15°C° 0 mm 2 m/s 578 mmHg 87%
    05:00 -15°C° 0 mm 2 m/s 578 mmHg 85%
    06:00 -15°C° 0 mm 2 m/s 578 mmHg 83%
    07:00 -15°C° 0 mm 2 m/s 578 mmHg 81%
    08:00 -14°C° 0 mm 2 m/s 579 mmHg 78%
    09:00 -12°C° 0 mm 2 m/s 580 mmHg 75%
    10:00 -9°C° 0 mm 1 m/s 581 mmHg 72%
    11:00 -7°C° 0 mm 1 m/s 581 mmHg 69%
    12:00 -6°C° 0 mm 1 m/s 581 mmHg 66%
    13:00 -3°C° 0 mm 1 m/s 582 mmHg 63%
    14:00 -4°C° 0 mm 1 m/s 581 mmHg 67%
    15:00 -7°C° 0 mm 1 m/s 581 mmHg 70%
    16:00 -8°C° 0 mm 1 m/s 580 mmHg 74%
    17:00 -8°C° 0 mm 1 m/s 580 mmHg 74%
    18:00 -9°C° 0 mm 2 m/s 580 mmHg 73%
    19:00 -9°C° 0 mm 2 m/s 580 mmHg 73%
    20:00 -9°C° 0.2 mm 2 m/s 580 mmHg 75%
    21:00 -9°C° 0.2 mm 2 m/s 580 mmHg 76%
    22:00 -8°C° 0.2 mm 2 m/s 580 mmHg 77%
    23:00 -9°C° 0.1 mm 2 m/s 580 mmHg 76%
    Arată mai mult